Location: Newark
(36.6294°S, 72.9458°W)
Time: 04:33:20
(UTC+00:00)

LightSail 2 - Visible Passes

Search period start: 18 January 2020 00:00
Search period end: 28 January 2020 00:00
Orbit: 703 x 721 km, 24.0° (Epoch: 17 January)

Date Brightness Start Highest point End Pass type
(mag) Time Alt. Az. Time Alt. Az. Time Alt. Az.
22 Jan 7.3 09:15:34 10° N 09:17:13 11° NNE 09:18:52 10° NE visible
24 Jan 7.1 09:02:29 10° NNW 09:05:24 15° NNE 09:08:20 10° NE visible
25 Jan 7.2 08:07:22 13° NNE 08:07:22 13° NNE 08:09:25 10° NE visible
26 Jan 6.8 08:51:20 14° NNW 08:53:34 18° N 08:57:02 10° NE visible
27 Jan 7.1 07:56:23 15° NNE 07:56:23 15° NNE 07:58:25 10° NE visible
